FDB3PL OMDB-LROP

Flight info

Callsign FDB3PL
Flight time N/A
Altitude 34000
Route ANVIX R401 GIDIS G783 VAVIM DCT RIBOT DCT ITRUX Y511 ELONU G799 PMA V10 PEGUR Z712 SIGRO/N0476F360 Z712 WEJ W600 DARAX L677 CVO A16 RASDA M855 TOMBI UA16 AYT UQ23 OSVEL UL619 MAKOL L619 ARGES DCT OSTAL
Aircraft B38M/M-SDE1FGHILORVWXY/HB1

Departure

Time 2026-04-26 10:08
Airport Dubai International Airport (OMDB)

Arrival

Time N/A
Airport Bucharest Henri Coandă International Airport (LROP)
Time Latitude Longitude Altitude Speed Heading
2026-04-26 09:28 25.26455 55.34342 24 ft 0 kts 211°
2026-04-26 09:52 25.26456 55.34343 51 ft 1 kts 211°
2026-04-26 09:52 25.26488 55.34364 26 ft 3 kts 211°
2026-04-26 09:52 25.26505 55.34376 27 ft 3 kts 211°
2026-04-26 09:53 25.26522 55.34387 27 ft 3 kts 201°
2026-04-26 09:53 25.26540 55.34391 26 ft 3 kts 171°
2026-04-26 09:53 25.26558 55.34383 26 ft 3 kts 141°
2026-04-26 09:53 25.26568 55.34371 24 ft 1 kts 122°
2026-04-26 09:54 25.26576 55.34357 29 ft 3 kts 122°
2026-04-26 09:54 25.26581 55.34349 27 ft 0 kts 122°
2026-04-26 09:56 25.26580 55.34349 28 ft 0 kts 122°
2026-04-26 09:56 25.26574 55.34361 29 ft 3 kts 121°
2026-04-26 09:57 25.26558 55.34390 26 ft 6 kts 122°
2026-04-26 09:57 25.26529 55.34441 26 ft 11 kts 122°
2026-04-26 09:57 25.26494 55.34530 24 ft 14 kts 81°
2026-04-26 09:57 25.26512 55.34626 26 ft 14 kts 118°
2026-04-26 09:58 25.26457 55.34724 27 ft 16 kts 122°
2026-04-26 09:58 25.26393 55.34837 25 ft 19 kts 122°
2026-04-26 09:58 25.26323 55.34963 26 ft 20 kts 122°
2026-04-26 09:58 25.26241 55.35108 27 ft 24 kts 122°
2026-04-26 09:59 25.26149 55.35271 26 ft 26 kts 122°
2026-04-26 09:59 25.26052 55.35444 26 ft 26 kts 122°
2026-04-26 09:59 25.25954 55.35618 26 ft 28 kts 122°
2026-04-26 09:59 25.25849 55.35805 27 ft 29 kts 122°
2026-04-26 10:00 25.25751 55.35979 26 ft 27 kts 122°
2026-04-26 10:00 25.25650 55.36160 26 ft 29 kts 122°
2026-04-26 10:00 25.25541 55.36353 25 ft 30 kts 121°
2026-04-26 10:00 25.25429 55.36551 25 ft 28 kts 122°
2026-04-26 10:01 25.25324 55.36740 24 ft 30 kts 122°
2026-04-26 10:01 25.25212 55.36939 25 ft 31 kts 122°
2026-04-26 10:01 25.25096 55.37145 26 ft 32 kts 121°
2026-04-26 10:01 25.24975 55.37358 28 ft 33 kts 122°
2026-04-26 10:02 25.24854 55.37575 28 ft 34 kts 122°
2026-04-26 10:02 25.24740 55.37776 26 ft 19 kts 121°
2026-04-26 10:02 25.24671 55.37898 27 ft 9 kts 122°
2026-04-26 10:02 25.24678 55.37964 25 ft 9 kts 43°
2026-04-26 10:03 25.24696 55.37976 25 ft 0 kts 31°
2026-04-26 10:05 25.24715 55.37989 28 ft 8 kts 31°
2026-04-26 10:05 25.24784 55.38017 27 ft 12 kts 355°
2026-04-26 10:05 25.24836 55.37971 27 ft 0 kts 301°
2026-04-26 10:07 25.24921 55.37819 28 ft 55 kts 301°
2026-04-26 10:07 25.25229 55.37263 30 ft 112 kts 301°
2026-04-26 10:07 25.25719 55.36380 37 ft 154 kts 300°
2026-04-26 10:07 25.26280 55.35311 384 ft 164 kts 300°
2026-04-26 10:08 25.26875 55.34197 820 ft 177 kts 301°
2026-04-26 10:08 25.27513 55.33048 1502 ft 169 kts 303°
2026-04-26 10:08 25.28170 55.31899 1993 ft 189 kts 304°
2026-04-26 10:08 25.28900 55.30575 2403 ft 214 kts 296°
2026-04-26 10:09 25.29129 55.28917 3083 ft 228 kts 263°
2026-04-26 10:09 25.28602 55.27222 3541 ft 238 kts 247°
2026-04-26 10:09 25.27895 55.25561 3845 ft 239 kts 247°
2026-04-26 10:09 25.27194 55.23913 4730 ft 237 kts 246°
2026-04-26 10:10 25.26498 55.22270 5485 ft 240 kts 246°
2026-04-26 10:10 25.25788 55.20599 6333 ft 240 kts 246°
2026-04-26 10:10 25.25072 55.18924 7109 ft 243 kts 244°
2026-04-26 10:10 25.23960 55.17455 7636 ft 261 kts 216°
2026-04-26 10:11 25.22214 55.16709 8123 ft 283 kts 188°
2026-04-26 10:11 25.20211 55.17015 8671 ft 298 kts 159°
2026-04-26 10:11 25.18461 55.18257 9505 ft 304 kts 138°
2026-04-26 10:11 25.17179 55.20125 10246 ft 308 kts 120°
2026-04-26 10:12 25.16130 55.22204 10985 ft 312 kts 120°
2026-04-26 10:12 25.15078 55.24319 11800 ft 315 kts 120°
2026-04-26 10:12 25.14031 55.26454 12625 ft 318 kts 120°
2026-04-26 10:12 25.12993 55.28588 13449 ft 321 kts 120°
2026-04-26 10:13 25.11936 55.30773 14248 ft 324 kts 120°
2026-04-26 10:13 25.10877 55.32993 14961 ft 329 kts 117°
2026-04-26 10:13 25.09916 55.35308 15655 ft 335 kts 116°
2026-04-26 10:13 25.08978 55.37627 16219 ft 321 kts 113°
2026-04-26 10:14 25.08158 55.39879 16507 ft 321 kts 113°
2026-04-26 10:14 25.07323 55.42183 17181 ft 323 kts 114°
2026-04-26 10:14 25.06434 55.44409 18192 ft 312 kts 117°
2026-04-26 10:14 25.05515 55.46557 19022 ft 306 kts 116°
2026-04-26 10:15 25.04645 55.48684 19782 ft 301 kts 116°
2026-04-26 10:15 25.03818 55.50750 20483 ft 296 kts 116°
2026-04-26 10:15 25.02998 55.52824 21145 ft 293 kts 117°
2026-04-26 10:15 25.02183 55.54893 21577 ft 299 kts 118°
2026-04-26 10:16 25.01139 55.56931 21717 ft 313 kts 126°
2026-04-26 10:16 24.99971 55.59035 21861 ft 331 kts 125°
2026-04-26 10:16 24.98756 55.61275 21980 ft 349 kts 124°
2026-04-26 10:16 24.97485 55.63645 22083 ft 368 kts 124°
2026-04-26 10:17 24.96155 55.66144 22159 ft 387 kts 123°
2026-04-26 10:17 24.94765 55.68765 22202 ft 406 kts 123°
2026-04-26 10:17 24.93144 55.71368 22242 ft 420 kts 130°
2026-04-26 10:17 24.91372 55.74004 22329 ft 435 kts 129°
2026-04-26 10:18 24.89577 55.76716 22736 ft 440 kts 129°
2026-04-26 10:18 24.87782 55.79452 23240 ft 443 kts 129°
2026-04-26 10:18 24.85994 55.82184 23647 ft 447 kts 129°
2026-04-26 10:18 24.84162 55.84962 24042 ft 449 kts 130°
2026-04-26 10:19 24.82287 55.87735 24431 ft 452 kts 130°
2026-04-26 10:19 24.80153 55.90251 24786 ft 448 kts 145°
2026-04-26 10:19 24.77526 55.92047 25160 ft 443 kts 160°
2026-04-26 10:19 24.74612 55.93069 25461 ft 439 kts 175°
2026-04-26 10:20 24.71583 55.93334 25832 ft 437 kts 182°
2026-04-26 10:20 24.69574 55.93392 26043 ft 439 kts 184°
2026-04-26 10:20 24.65461 55.93404 26546 ft 442 kts 185°
2026-04-26 10:20 24.62402 55.93131 26864 ft 439 kts 197°
2026-04-26 10:21 24.59552 55.92017 27171 ft 434 kts 212°
2026-04-26 10:21 24.57733 55.90733 27355 ft 433 kts 221°
2026-04-26 10:22 24.56716 55.89847 27490 ft 434 kts 221°
2026-04-26 10:22 24.54363 55.87743 27843 ft 436 kts 223°
2026-04-26 10:23 24.52035 55.85585 28176 ft 439 kts 223°
2026-04-26 10:23 24.49713 55.83394 28501 ft 441 kts 224°
2026-04-26 10:23 24.47384 55.81173 28834 ft 443 kts 224°
2026-04-26 10:23 24.45058 55.78942 29153 ft 446 kts 224°
2026-04-26 10:24 24.42716 55.76693 29472 ft 448 kts 224°
2026-04-26 10:24 24.40364 55.74435 29836 ft 449 kts 224°
2026-04-26 10:24 24.38007 55.72171 30101 ft 452 kts 224°
2026-04-26 10:24 24.35653 55.69912 30341 ft 454 kts 225°
2026-04-26 10:25 24.33265 55.67620 30604 ft 456 kts 225°
2026-04-26 10:25 24.30872 55.65326 30920 ft 457 kts 225°
2026-04-26 10:25 24.28484 55.63032 31233 ft 457 kts 226°
2026-04-26 10:25 24.26414 55.60440 31487 ft 450 kts 242°
2026-04-26 10:26 24.25054 55.57385 31806 ft 444 kts 252°
2026-04-26 10:26 24.24298 55.55305 32006 ft 445 kts 252°
2026-04-26 10:26 24.23178 55.52148 32340 ft 444 kts 253°
2026-04-26 10:26 24.21733 55.47957 32816 ft 443 kts 254°
2026-04-26 10:27 24.20660 55.44794 33185 ft 442 kts 254°
2026-04-26 10:27 24.19942 55.42664 33441 ft 441 kts 255°
2026-04-26 10:27 24.18881 55.39515 33787 ft 440 kts 255°
2026-04-26 10:27 24.17817 55.36358 33912 ft 440 kts 255°
2026-04-26 10:28 24.15716 55.30134 33898 ft 437 kts 255°
2026-04-26 10:28 24.13605 55.23885 33890 ft 437 kts 255°
2026-04-26 10:29 24.11497 55.17658 33890 ft 436 kts 255°
2026-04-26 10:29 24.09387 55.11430 33884 ft 436 kts 255°